Lid_Strength_Index
-0 1 1 0 1 1 1 0 -0 -0 -0 -0 -0 0 1 1 1 2 2 2 2 2
0 0 0 0 0 0 0 0 -0 -0 -0 -0 -0 -0 1 1 2 2 2 3 2 3
0 0 0 0 1 1 1 1 1 1 1 2 2 0 -0 1 1 1 2 4 5 5
0 1 1 3 4 4 4 4 3 3 3 3 3 3 2 2 3 4 4 5 5 6
2 3 4 4 5 5 5 5 5 4 4 3 3 4 4 6 6 7 8 8 8 8
3 4 5 5 5 6 6 6 5 5 5 5 4 4 4 4 6 4 7 8 9 9
4 5 6 6 6 7 7 7 7 6 6 5 5 4 4 5 5 6 7 8 8 8
5 5 6 7 7 7 7 7 6 6 5 6 6 5 6 7 7 8 9 9 9 8
5 6 6 6 4 4 5 5 5 5 5 6 7 7 7 8 9 9 9 9 9 9
3 5 5 5 5 5 5 5 5 5 6 6 6 8 8 8 8 8 8 8 8 9
3 5 5 5 7 6 6 6 6 6 6 6 6 7 8 8 7 7 8 8 8 7
4 5 6 7 6 5 6 6 6 5 6 6 6 7 7 7 7 8 8 7 7 6
5 6 6 6 5 5 5 6 6 6 6 6 6 7 7 6 6 7 7 6 5 7
4 5 6 5 5 5 6 6 6 6 6 6 6 6 7 7 5 6 6 6 7 6